TimeEST,TemperatureF,Dew PointF,Humidity,Sea Level PressureIn,VisibilityMPH,Wind Direction,Wind SpeedMPH,Gust SpeedMPH,PrecipitationIn,Events,Conditions,WindDirDegrees,DateUTC
12:15 AM,42.8,32.0,66,30.18,10.0,Calm,Calm,-,N/A,,Clear,0,2013-03-05 05:15:00
12:35 AM,41.0,32.0,70,30.18,10.0,Calm,Calm,-,N/A,,Clear,0,2013-03-05 05:35:00
12:55 AM,41.0,32.0,70,30.16,10.0,Calm,Calm,-,N/A,,Clear,0,2013-03-05 05:55:00
1:15 AM,39.2,32.0,75,30.16,10.0,ESE,5.8,-,N/A,,Clear,120,2013-03-05 06:15:00
1:35 AM,41.0,33.8,76,30.16,10.0,SE,4.6,-,N/A,,Clear,130,2013-03-05 06:35:00
1:55 AM,42.8,33.8,70,30.15,10.0,SE,5.8,-,N/A,,Clear,130,2013-03-05 06:55:00
2:15 AM,44.6,35.6,71,30.15,10.0,SSE,4.6,-,N/A,,Clear,160,2013-03-05 07:15:00
2:35 AM,44.6,35.6,71,30.15,10.0,Calm,Calm,-,N/A,,Clear,0,2013-03-05 07:35:00
3:15 AM,44.6,37.4,76,30.15,10.0,Calm,Calm,-,N/A,,Clear,0,2013-03-05 08:15:00
3:35 AM,44.6,35.6,71,30.15,10.0,Calm,Calm,-,N/A,,Clear,0,2013-03-05 08:35:00
3:55 AM,42.8,37.4,81,30.15,10.0,Calm,Calm,-,N/A,,Clear,0,2013-03-05 08:55:00
4:15 AM,41.0,35.6,81,30.15,10.0,Calm,Calm,-,N/A,,Clear,0,2013-03-05 09:15:00
4:35 AM,41.0,35.6,81,30.15,10.0,Calm,Calm,-,N/A,,Clear,0,2013-03-05 09:35:00
4:55 AM,42.8,35.6,76,30.15,10.0,Calm,Calm,-,N/A,,Clear,0,2013-03-05 09:55:00
5:15 AM,41.0,37.4,87,30.15,10.0,SSE,3.5,-,N/A,,Clear,160,2013-03-05 10:15:00
5:35 AM,41.0,37.4,87,30.16,10.0,Calm,Calm,-,N/A,,Clear,0,2013-03-05 10:35:00
5:50 AM,42.8,37.4,81,30.16,12.0,Calm,Calm,-,N/A,,Clear,0,2013-03-05 10:50:00
6:50 AM,41.0,37.4,87,30.18,10.0,Calm,Calm,-,N/A,,Clear,0,2013-03-05 11:50:00
8:50 AM,55.4,42.8,63,30.20,12.0,South,6.9,-,N/A,,Clear,190,2013-03-05 13:50:00
9:50 AM,60.8,44.6,55,30.19,15.0,SW,8.1,-,N/A,,Clear,230,2013-03-05 14:50:00
11:50 AM,69.8,46.4,43,30.17,15.0,WSW,11.5,-,N/A,,Clear,240,2013-03-05 16:50:00
12:50 PM,71.6,44.6,38,30.15,15.0,WSW,6.9,16.1,N/A,,Clear,250,2013-03-05 17:50:00
2:50 PM,75.2,48.2,38,30.11,15.0,West,8.1,19.6,N/A,,Clear,280,2013-03-05 19:50:00
3:50 PM,75.2,46.4,36,30.10,15.0,West,11.5,16.1,N/A,,Clear,260,2013-03-05 20:50:00
4:50 PM,73.4,44.6,36,30.10,15.0,West,11.5,18.4,N/A,,Clear,260,2013-03-05 21:50:00
5:50 PM,69.8,41.0,35,30.10,15.0,West,12.7,-,N/A,,Clear,260,2013-03-05 22:50:00
6:50 PM,64.4,48.2,56,30.09,10.0,West,9.2,-,N/A,,Clear,260,2013-03-05 23:50:00
8:50 PM,57.2,51.8,82,30.08,10.0,South,5.8,-,N/A,,Clear,180,2013-03-06 01:50:00
9:50 PM,55.4,51.8,88,30.07,10.0,SSW,5.8,-,N/A,,Clear,210,2013-03-06 02:50:00
9:55 PM,55.4,51.8,88,30.07,10.0,SSW,5.8,-,N/A,,Clear,210,2013-03-06 02:55:00
10:15 PM,55.4,51.8,88,30.07,10.0,SSW,6.9,-,N/A,,Clear,210,2013-03-06 03:15:00
10:35 PM,55.4,53.6,94,30.07,10.0,SSW,8.1,-,N/A,,Clear,200,2013-03-06 03:35:00
10:55 PM,57.2,55.4,94,30.07,10.0,SSW,8.1,-,N/A,,Scattered Clouds,210,2013-03-06 03:55:00
11:15 PM,59.0,55.4,88,30.07,10.0,SW,8.1,-,N/A,,Overcast,220,2013-03-06 04:15:00
11:35 PM,59.0,55.4,88,30.06,10.0,SSW,8.1,-,N/A,,Overcast,210,2013-03-06 04:35:00
11:55 PM,59.0,57.2,94,30.05,10.0,SSW,10.4,-,N/A,,Mostly Cloudy,210,2013-03-06 04:55:00